Weather History for MKJP - October, 2011

Change the Weather History Date:

Thursday, October 13, 2011

  Actual Average Record
Temperature  
Mean Temperature 84 °F -  
Max Temperature 89 °F 86 °F 105 °F (2000)
Min Temperature 78 °F 77 °F 73 °F (2002)
Cooling Degree Days 19    
Growing Degree Days 34 (Base 50)    
Moisture  
Dew Point 73 °F    
Average Humidity 70    
Maximum Humidity 79    
Minimum Humidity 55    
Precipitation  
Precipitation 0.00 in - - ()
Sea Level Pressure  
Sea Level Pressure 29.82 in    
Wind  
Wind Speed 4 mph ()    
Max Wind Speed 10 mph    
Max Gust Speed -    
Visibility 5.9 miles    
Events Rain , Thunderstorm    
Averages and records for this station are not official NWS values.
T = Trace of Precipitation, MM = Missing Value Source: Averaged Metar Reports

Daily Weather History Graph

Daily Weather History Graph

Search for Another Location

Airport or City:

Trip Planner

Search our weather history database for the weather conditions in past years. The results will help you decide how hot, cold, wet, or windy it might be!

Date:

Astronomy

Oct. 13, 2011 Rise Set
Actual Time 6:00 AM EST 5:46 PM EST
Civil Twilight 5:38 AM EST 6:08 PM EST
Nautical Twilight 5:12 AM EST 6:33 PM EST
Astronomical Twilight 4:47 AM EST 6:59 PM EST
Moon 6:44 PM EST (10/13) 7:08 AM EST (10/13)
Length of Visible Light 12h 30m
Length of Day
11h 46m
Full, 98% of the Moon is Illuminated
Oct 13
Full
Oct 19
Last Quarter
Oct 26
New
Nov 2
First Quarter
Nov 10
Full

Hourly Weather History & Observations

Time (EST) Temp. Heat Index Dew Point Humidity Pressure Visibility Wind Dir Wind Speed Gust Speed Precip Events Conditions
12:00 AM 82.4 °F 88.2 °F 73.4 °F 74% 29.83 in 6.2 mi East 3.5 mph - N/A Thunderstorm Partly Cloudy
1:00 AM 82.4 °F 88.2 °F 73.4 °F 74% 29.83 in 6.2 mi ESE 5.8 mph - N/A   Partly Cloudy
2:00 AM 82.4 °F 88.2 °F 73.4 °F 74% 29.80 in 6.2 mi East 2.3 mph - N/A Thunderstorm Partly Cloudy
3:00 AM 82.4 °F 88.2 °F 73.4 °F 74% 29.80 in 6.2 mi West 3.5 mph - N/A Thunderstorm Scattered Clouds
3:10 AM 82.4 °F 88.2 °F 73.4 °F 74% 29.80 in 6.2 mi NW 3.5 mph - N/A Thunderstorm Thunderstorm
4:00 AM 81 °F - 72 °F 68% 29.82 in 4 mi NW 1.2 mph - -   Scattered Clouds
4:00 AM 80.6 °F 84.6 °F 71.6 °F 74% 29.80 in 6.2 mi NW 1.2 mph - N/A Thunderstorm Partly Cloudy
5:00 AM 80.6 °F 85.4 °F 73.4 °F 79% 29.80 in 6.2 mi South 4.6 mph - N/A   Partly Cloudy
6:00 AM 80.6 °F 85.4 °F 73.4 °F 79% 29.83 in 6.2 mi ENE 1.2 mph - N/A   Partly Cloudy
7:00 AM 84 °F - 74 °F 66% 29.86 in 10 mi NW 3.5 mph - -   Haze
7:00 AM 84.2 °F 92.3 °F 75.2 °F 74% 29.83 in 6.2 mi NW 3.5 mph - N/A   Partly Cloudy
7:35 AM 84.2 °F 90.9 °F 73.4 °F 70% 29.86 in 6.2 mi WNW 1.2 mph - N/A   Partly Cloudy
8:00 AM 87.8 °F 95.6 °F 73.4 °F 62% 29.86 in 6.2 mi SSE 2.3 mph - N/A Thunderstorm Thunderstorm
9:00 AM 86.0 °F 95.1 °F 75.2 °F 70% 29.89 in 6.2 mi SW 5.8 mph - N/A Rain Light Rain Showers
10:00 AM 87 °F - 75 °F 61% 29.88 in 3 mi South 4.6 mph - -   Partly Cloudy
10:00 AM 87.8 °F 97.6 °F 75.2 °F 66% 29.86 in 6.2 mi South 4.6 mph - N/A   Scattered Clouds
11:00 AM 89.6 °F 96.2 °F 71.6 °F 55% 29.86 in 6.2 mi SSE 9.2 mph - N/A   Partly Cloudy
12:00 PM 89.6 °F 99.8 °F 75.2 °F 62% 29.83 in 6.2 mi SSE 9.2 mph - N/A   Scattered Clouds
1:00 PM 88 °F - 79 °F 68% 29.82 in 3 mi South 9.2 mph - -  
1:00 PM 87.8 °F 102.5 °F 78.8 °F 75% 29.80 in 6.2 mi South 9.2 mph - N/A   Scattered Clouds
2:00 PM 86.0 °F 95.1 °F 75.2 °F 70% 29.77 in 6.2 mi SE 8.1 mph - N/A   Mostly Cloudy
3:00 PM 87.8 °F 97.6 °F 75.2 °F 66% 29.77 in 6.2 mi SE 10.4 mph - N/A   Mostly Cloudy
4:00 PM 85 °F - 75 °F 65% 29.81 in 3 mi SSE 10.4 mph - -   Mostly Cloudy
4:00 PM 84.2 °F 92.3 °F 75.2 °F 74% 29.80 in 6.2 mi SSE 10.4 mph - N/A   Mostly Cloudy
5:00 PM 80.6 °F 85.4 °F 73.4 °F 79% 29.77 in 6.2 mi East 5.8 mph - N/A   Mostly Cloudy
6:00 PM 80.6 °F 83.2 °F 68.0 °F 65% 29.77 in 6.2 mi ESE 5.8 mph - N/A   Mostly Cloudy
7:00 PM - - - %  in - Calm Calm - -  
7:00 PM 86.0 °F 99.3 °F 78.8 °F 79% 29.83 in 6.2 mi ESE 8.1 mph - N/A Thunderstorm Mostly Cloudy
8:00 PM 84.2 °F 90.9 °F 73.4 °F 70% 29.83 in 6.2 mi ESE 9.2 mph - N/A   Mostly Cloudy
9:00 PM 80.6 °F 83.2 °F 68.0 °F 65% 29.83 in 6.2 mi East 4.6 mph - N/A   Mostly Cloudy
10:00 PM 80 °F - 68 °F 60% 29.84 in 4 mi East 3.5 mph - -   Scattered Clouds
10:00 PM 80.6 °F 83.2 °F 68.0 °F 65% 29.83 in 6.2 mi East 3.5 mph - N/A Thunderstorm Mostly Cloudy
11:00 PM 78.8 °F - 68.0 °F 69% 29.83 in 6.2 mi NW 2.3 mph - N/A Thunderstorm Mostly Cloudy